一网星座-0567星 (ONEWEB-0567)

导读

ONEWEB-0567是英国卫星互联网运营商OneWeb的低轨通信卫星,于2023年1月10日发射入轨,属于OneWeb全球宽带走低轨星座组网卫星。该卫星单星重约147.5公斤,配备Ku/Ka波段天线,支持7.5Gbps通信容量,为全球提供高速宽带互联网服务,可满足偏远地区、航空、海上等场景网络接入需求,助力OneWeb完成648颗卫星的全球组网布局,目前已在轨稳定运行超三年。

基本信息
目录编号:
55147
目录名称:
ONEWEB-0567
国际标识:
2023-004H
轨道中心:
EARTH
卫星名称:
一网星座-0567星
卫星全名:
一网星座-0567星 (ONEWEB-0567)
卫星状态:
在轨 (已飞行1341 天)
发射日期:
2023-01-10 UTC
国别 :
英国 (GB)
星等 :
--
该卫星已列入 空间交会检测服务 Space Conjunction Data Service (SCDS) ,当前飞行风险评估等级: 无高风险
轨道信息
数据来源 国际轨道数据
星历时间: 2026-09-12T01:05:17+0800
10小时前
查看轨道信息
半长轴: 7567.88km
偏心率: 0.0001616
轨道倾角: 87.917°
近地点辐角 93.640°
升交点赤经 318.276°
平近点角 266.492°
近地点: 1188.52km
远地点: 1190.966km
周期: 109.200分钟
每日圈数: 13.186861
详细信息
平衡模式:
三轴稳定
覆盖范围:
全球
运营商:
一网卫星公司
运营商所在国:
英国
制造商(研发单位):
一网卫星公司
制造商所在国:
英国
使用方式:
暂无
卫星简介
OneWeb卫星网络由648颗重约125公斤的微型卫星组成,运行在1200公里的轨道上。 每颗卫星都能够提供至少每秒8千兆位的吞吐量,以使用其高吞吐量的Ku频段有效载荷为家庭和移动平台提供互联网接入。该卫星仍在工作。
2D轨道图
3D轨道图
轨道高度分析图
轨道倾角分析图
轨道综合分析图
查看轨道综合分析图
与全量物体交会距离演化趋势
与全量物体交会风险概率演化趋势